[[{"header":{"parameterUnit":"m.s-1","parameterCategory":2,"la1":30.2991,"la2":30.254,"lo1":-89.0895,"lo2":-89.0444,"dy":0.0017,"dx":0.0017,"nx":28,"ny":28,"refTime":"2025-09-15T09:00:00:Z","depth":"0","parameterNumber":2,"parameterNumberName":"U-component_of_CURRENTS"},"data":[0,0,0,0,0,0,0,0,0,0,0,0,0,0,0,0,0,0,0,0,0,0,0,0,0,0,0,0,0,0,0,0,0,0,0,0,0,0,0,0,0,0,0,0,0,0,0,0,0,0,0,0,0,0,0,0,0,0,-0.2366,-0.2367,0,-0.2395,-0.2395,-0.2395,-0.2282,-0.2279,-0.2276,-0.2273,-0.2147,-0.2146,-0.2146,0,0,0,0,0,0,0,0,0,0,0,0,0,-0.2269,-0.227,-0.2366,-0.2367,-0.2367,-0.2395,-0.2395,-0.2395,-0.2283,-0.2279,-0.2275,-0.2272,-0.2147,-0.2147,-0.2146,0,0,0,0,0,0,0,0,0,0,0,0,0,-0.2302,-0.2271,-0.2366,-0.2317,-0.2313,-0.2395,-0.2395,-0.2395,-0.2284,-0.2279,-0.2274,-0.227,-0.2147,-0.2147,-0.2146,-0.2231,0,0,-0.2143,-0.2143,0,0,0,0,0,0,0,0,-0.23,-0.2305,-0.2324,-0.2321,-0.2317,-0.2334,-0.2315,-0.2334,-0.2285,-0.2291,-0.2273,-0.2268,-0.2201,-0.2195,-0.2208,-0.2225,-0.222,-0.2143,-0.2143,-0.2142,-0.2142,0,0,0,0,0,0,0,-0.2298,-0.2304,-0.2374,-0.2325,-0.2321,-0.2314,-0.2312,-0.2319,-0.2265,-0.229,-0.2283,-0.2294,-0.2196,-0.2209,-0.2204,-0.2218,-0.2143,-0.2142,-0.2142,-0.2142,-0.2277,-0.2281,0,0,0,0,0,0,-0.2305,-0.2302,-0.2373,-0.2375,-0.2301,-0.2319,-0.2318,-0.233,-0.2268,-0.2257,-0.2297,-0.2288,-0.2213,-0.2205,-0.2199,-0.2252,-0.2142,-0.2142,-0.2141,-0.2273,-0.2278,-0.2282,0,0,0,0,0,0,-0.2303,-0.2311,-0.2372,-0.2341,-0.2349,-0.2325,-0.234,-0.2333,-0.2326,-0.2276,-0.226,-0.2296,-0.2209,-0.22,-0.2217,-0.2247,-0.2141,-0.214,-0.2268,-0.2275,-0.228,-0.2387,0,0,0,0,0,0,-0.23,-0.231,-0.2316,-0.2342,-0.2351,-0.2435,-0.2345,-0.2337,-0.2343,-0.233,-0.2271,-0.2255,-0.2205,-0.222,-0.2217,-0.2244,-0.214,-0.2263,-0.2271,-0.2278,-0.2378,-0.2396,-0.2411,0,0,0,0,0,-0.2296,-0.2339,-0.2317,-0.2325,-0.2362,-0.2438,-0.2444,-0.2407,-0.2347,-0.2377,-0.2334,-0.2256,-0.2265,-0.2223,-0.2218,-0.2246,-0.2259,-0.2269,-0.2278,-0.237,-0.2392,-0.241,0,0,0,0,0,0,-0.2299,-0.2333,-0.2308,-0.2355,-0.2396,-0.242,-0.2445,-0.2421,-0.2415,-0.2386,-0.2313,-0.23,-0.2326,-0.2296,-0.2251,-0.2316,-0.2249,-0.2258,-0.2321,-0.2341,-0.2357,-0.2286,-0.2139,0,0,0,0,0,-0.2307,-0.2338,-0.2377,-0.2412,-0.2438,-0.244,-0.246,-0.2447,-0.245,-0.244,-0.2403,-0.2374,-0.2374,-0.236,-0.2362,-0.2403,-0.2327,-0.2422,-0.2439,-0.2452,-0.2398,-0.2343,-0.2346,-0.2313,-0.2313,-0.2312,0,0,-0.2313,-0.2338,-0.2351,-0.2414,-0.2434,-0.2502,-0.244,-0.2491,-0.2519,-0.2432,-0.2453,-0.2435,-0.2403,-0.2443,-0.2451,-0.2408,-0.2439,-0.2464,-0.2475,-0.2411,-0.2352,-0.2354,-0.2356,-0.2319,-0.2318,-0.2317,0,0,-0.2382,-0.2374,-0.2437,-0.2483,-0.2537,-0.2547,-0.2565,-0.2603,-0.2585,-0.2637,-0.2569,-0.2564,-0.2585,-0.2549,-0.2536,-0.2653,-0.2535,-0.267,-0.2675,-0.2626,-0.2626,-0.2624,-0.258,-0.2573,-0.2667,-0.2668,-0.2668,0,-0.2387,-0.2448,-0.2471,-0.2556,-0.2564,-0.2572,-0.2627,-0.2661,-0.269,-0.2652,-0.2658,-0.2632,-0.2628,-0.2605,-0.2652,-0.2679,-0.2625,-0.2596,-0.2639,-0.2635,-0.2631,-0.2586,-0.2577,-0.2674,-0.2673,-0.2673,-0.2672,0,-0.2516,-0.2549,-0.2597,-0.2676,-0.2711,-0.276,-0.2798,-0.2811,-0.2787,-0.2782,-0.2763,-0.2767,-0.2715,-0.2756,-0.2738,-0.2715,-0.2681,-0.267,-0.2568,-0.2639,-0.2591,-0.2579,-0.2683,-0.2681,-0.2679,-0.2677,0,0,-0.2541,-0.2654,-0.2665,-0.2646,-0.2747,-0.2756,-0.2827,-0.2828,-0.2786,-0.2843,-0.2777,-0.2828,-0.2774,-0.2756,-0.2738,-0.2708,-0.2692,-0.2676,-0.2671,-0.2594,-0.2568,-0.249,-0.2469,-0.2674,-0.2672,-0.267,-0.256,0,-0.2605,-0.2699,-0.2768,-0.2801,-0.2806,-0.2819,-0.2852,-0.2853,-0.2848,-0.2814,-0.2795,-0.2769,-0.2797,-0.2758,-0.2742,-0.2698,-0.2657,-0.272,-0.2539,-0.2533,-0.2422,-0.2452,-0.2336,-0.222,-0.2548,-0.2546,-0.2544,0,-0.27,-0.2705,-0.2747,-0.2714,-0.2722,-0.2762,-0.2681,-0.2729,-0.2723,-0.2715,-0.2692,-0.2684,-0.2663,-0.268,-0.2608,-0.2641,-0.2595,-0.2569,-0.2564,-0.2418,-0.243,-0.2196,-0.2185,-0.2187,-0.2525,-0.2527,-0.2528,0,-0.2592,-0.2673,-0.2645,-0.2656,-0.2675,-0.2647,-0.2657,-0.266,-0.2656,-0.264,-0.2626,-0.2598,-0.2578,-0.2532,-0.2525,-0.2547,-0.2428,-0.2456,-0.2331,-0.2327,-0.2148,-0.213,-0.2066,-0.2356,-0.2356,-0.2357,-0.2357,0,-0.2586,-0.2558,-0.2571,-0.2543,-0.2461,-0.2521,-0.247,-0.248,-0.2508,-0.2492,-0.255,-0.2522,-0.2534,-0.2496,-0.2477,-0.2368,-0.2391,-0.2295,-0.2275,-0.2194,-0.2182,-0.2108,-0.2155,-0.2353,-0.2354,-0.2354,-0.2355,0,-0.247,-0.2525,-0.2449,-0.2418,-0.2415,-0.2337,-0.2391,-0.2362,-0.2413,-0.24,-0.24,-0.2447,-0.2394,-0.2392,-0.2315,-0.2291,-0.2163,-0.2155,-0.2066,-0.2036,-0.1914,-0.1973,-0.1844,-0.1787,-0.1983,-0.198,-0.1977,0,-0.2419,-0.2367,-0.2306,-0.2275,-0.2266,-0.2217,-0.2211,-0.2286,-0.2296,-0.2347,-0.2325,-0.2299,-0.2245,-0.2132,-0.2065,-0.1967,-0.2017,-0.1823,-0.1839,-0.1853,-0.1905,-0.197,-0.1938,-0.1674,-0.1669,-0.1666,-0.1662,0,-0.2227,-0.2211,-0.2142,-0.2091,-0.2067,-0.2046,-0.2061,-0.2064,-0.2155,-0.2156,-0.2139,-0.2098,-0.2002,-0.1858,-0.1761,-0.1704,-0.1786,-0.1738,-0.1761,-0.1641,-0.1693,-0.1647,-0.183,-0.1628,-0.1632,-0.1634,-0.1636,-0.1637,-0.2051,-0.1972,-0.1919,-0.1864,-0.1863,-0.1857,-0.1804,-0.1854,-0.1843,-0.1801,-0.1899,-0.1758,-0.1732,-0.156,-0.1504,-0.1395,-0.1491,-0.1368,-0.1435,-0.1497,-0.144,-0.1548,-0.1326,-0.1328,-0.1329,-0.1331,-0.1332,0,-0.1809,-0.1779,-0.1717,-0.1661,-0.1616,-0.168,-0.168,-0.1613,-0.1544,-0.1494,-0.1446,-0.1367,-0.1274,-0.1252,-0.1199,-0.1137,-0.1128,-0.1136,-0.1206,-0.1183,-0.1254,-0.1237,-0.0976,-0.0976,-0.0976,-0.0976,-0.0976,-0.0976,-0.1689,-0.1563,-0.1557,-0.1423,-0.1405,-0.1295,-0.1262,-0.1192,-0.1114,-0.0946,-0.0835,-0.0768,-0.0938,-0.1196,-0.1153,-0.108,-0.1094,-0.1044,-0.1109,-0.119,-0.1218,-0.1245,-0.1239,-0.0982,-0.0982,-0.0962,-0.0962,-0.0962]},{"header":{"parameterUnit":"m.s-1","parameterCategory":2,"la1":30.2991,"la2":30.254,"lo1":-89.0895,"lo2":-89.0444,"dy":0.0017,"dx":0.0017,"nx":28,"ny":28,"refTime":"2025-09-15T09:00:00:Z","depth":"0","parameterNumber":3,"parameterNumberName":"V-component_of_CURRENTS"},"data":[0,0,0,0,0,0,0,0,0,0,0,0,0,0,0,0,0,0,0,0,0,0,0,0,0,0,0,0,0,0,0,0,0,0,0,0,0,0,0,0,0,0,0,0,0,0,0,0,0,0,0,0,0,0,0,0,0,0,0.0047,0.0049,0,0.0139,0.0139,0.014,0.0199,0.0199,0.02,0.02,0.0285,0.0287,0.0288,0,0,0,0,0,0,0,0,0,0,0,0,0,-0.0063,-0.0062,0.0047,0.0049,0.005,0.0138,0.014,0.0141,0.0199,0.0199,0.02,0.0201,0.0284,0.0286,0.0288,0,0,0,0,0,0,0,0,0,0,0,0,0,0.0,-0.0061,0.0047,0.0091,0.0096,0.0138,0.014,0.0141,0.0199,0.0199,0.02,0.0201,0.0284,0.0286,0.0289,0.029,0,0,0.0297,0.0298,0,0,0,0,0,0,0,0,-0.0003,0.0004,0.0083,0.0088,0.0094,0.016,0.0132,0.0191,0.0198,0.0158,0.02,0.0201,0.0243,0.0249,0.0262,0.0294,0.0297,0.0297,0.0299,0.03,0.0301,0,0,0,0,0,0,0,-0.0008,0.0001,0.0082,0.0085,0.0091,0.0111,0.012,0.0143,0.0193,0.0161,0.0166,0.0179,0.0246,0.0259,0.0264,0.0298,0.0297,0.0299,0.0301,0.0302,0.0341,0.034,0,0,0,0,0,0,-0.0017,-0.0004,0.0079,0.0085,0.0048,0.0112,0.0123,0.0136,0.0193,0.0204,0.0178,0.0181,0.0254,0.0261,0.0268,0.0288,0.03,0.0302,0.0304,0.0341,0.034,0.034,0,0,0,0,0,0,-0.002,-0.001,0.0075,0.0044,0.0056,0.0113,0.0128,0.0138,0.0152,0.0207,0.0216,0.0183,0.0255,0.0264,0.0284,0.0291,0.0303,0.0306,0.0342,0.0341,0.034,0.0319,0,0,0,0,0,0,-0.0023,-0.0012,-0.0016,0.0043,0.0058,0.0085,0.0128,0.0139,0.0159,0.0164,0.0213,0.0222,0.0257,0.028,0.0286,0.0295,0.0308,0.0343,0.0341,0.034,0.0321,0.0318,0.0315,0,0,0,0,0,-0.0028,-0.0041,-0.0016,-0.0007,0.0055,0.0084,0.0092,0.0135,0.0159,0.0152,0.0193,0.0221,0.0278,0.0281,0.0289,0.0299,0.0343,0.0342,0.0341,0.0322,0.0318,0.0315,0,0,0,0,0,0,-0.0095,-0.0034,-0.0006,-0.0001,0.0035,0.0094,0.0091,0.0127,0.0154,0.0158,0.0214,0.0224,0.0245,0.0266,0.0268,0.0304,0.0315,0.0315,0.0298,0.0295,0.0292,0.0278,0.031,0,0,0,0,0,-0.0109,-0.0102,-0.0041,-0.0039,-0.0025,0.0033,0.0049,0.008,0.0119,0.0132,0.0171,0.0209,0.0245,0.0264,0.0289,0.0307,0.0322,0.0317,0.0314,0.0312,0.0304,0.0308,0.0305,0.0336,0.0336,0.0336,0,0,-0.0134,-0.0101,-0.0096,-0.0053,-0.0023,-0.0006,0.0043,0.0058,0.008,0.0135,0.016,0.0196,0.0245,0.027,0.0282,0.0291,0.0317,0.031,0.0308,0.0301,0.0306,0.0303,0.03,0.0335,0.0335,0.0335,0,0,-0.0191,-0.0152,-0.0169,-0.0139,-0.0097,-0.0051,-0.0049,0.0007,0.0035,0.0061,0.0116,0.016,0.0195,0.0252,0.0283,0.0277,0.0298,0.0274,0.0258,0.0262,0.026,0.0258,0.0302,0.0304,0.0278,0.0278,0.0278,0,-0.0227,-0.0223,-0.0173,-0.0176,-0.0153,-0.0073,-0.0079,-0.0034,0.0022,0.0033,0.0057,0.0128,0.0195,0.024,0.026,0.0276,0.0276,0.0272,0.0259,0.0257,0.0256,0.0301,0.0303,0.0277,0.0277,0.0277,0.0277,0,-0.029,-0.0279,-0.0288,-0.0252,-0.0227,-0.0218,-0.0142,-0.0122,-0.0074,-0.003,0.0003,0.0088,0.0128,0.017,0.0228,0.0252,0.0258,0.0252,0.0269,0.0251,0.03,0.0303,0.0275,0.0276,0.0276,0.0276,0,0,-0.0383,-0.0341,-0.0342,-0.0338,-0.0262,-0.0254,-0.0216,-0.0171,-0.0165,-0.0101,-0.0091,0.0021,0.0056,0.0093,0.0167,0.0206,0.0248,0.0225,0.0226,0.0272,0.0265,0.0323,0.0332,0.0217,0.0217,0.0217,0.0315,0,-0.0444,-0.0472,-0.0423,-0.043,-0.0429,-0.0346,-0.0321,-0.0271,-0.0218,-0.019,-0.0092,-0.0054,0.003,0.0056,0.0106,0.0208,0.0247,0.0223,0.0272,0.0275,0.0329,0.0334,0.0397,0.0492,0.0318,0.0319,0.0319,0,-0.052,-0.0522,-0.0546,-0.0517,-0.0512,-0.0498,-0.046,-0.0428,-0.0353,-0.0319,-0.0268,-0.0196,-0.0086,-0.0032,0.0108,0.0074,0.0165,0.0242,0.0247,0.0304,0.0336,0.0475,0.0504,0.0677,0.0324,0.0323,0.0323,0,-0.0615,-0.0608,-0.0631,-0.0616,-0.0568,-0.0572,-0.0543,-0.0481,-0.046,-0.0398,-0.0382,-0.0286,-0.0211,-0.0119,0.0085,0.0074,0.0227,0.0228,0.0362,0.0368,0.0437,0.045,0.064,0.0294,0.0294,0.0293,0.0293,0,-0.0688,-0.0706,-0.0682,-0.0689,-0.072,-0.0663,-0.068,-0.064,-0.0585,-0.056,-0.0456,-0.0404,-0.0237,-0.0111,0.0036,0.0227,0.0185,0.0364,0.039,0.0436,0.0446,0.061,0.0666,0.0297,0.0296,0.0296,0.0295,0,-0.0769,-0.0754,-0.0778,-0.0759,-0.0758,-0.0779,-0.0749,-0.0759,-0.07,-0.0661,-0.0639,-0.0486,-0.0314,-0.0134,0.0063,0.0186,0.0464,0.042,0.0492,0.0524,0.0789,0.084,0.1018,0.1131,0.0566,0.0568,0.057,0,-0.0809,-0.0829,-0.0834,-0.0853,-0.0842,-0.086,-0.0866,-0.0818,-0.0812,-0.0693,-0.0675,-0.0503,-0.0344,-0.0029,0.0206,0.0448,0.0572,0.0635,0.0634,0.0825,0.0899,0.0929,0.1013,0.0736,0.0739,0.0741,0.0743,0,-0.086,-0.086,-0.0872,-0.0919,-0.094,-0.0964,-0.0966,-0.0975,-0.09,-0.0823,-0.0678,-0.0537,-0.022,0.0103,0.0404,0.0551,0.0775,0.0689,0.0858,0.1027,0.1099,0.1213,0.0678,0.0763,0.0761,0.076,0.0759,0.0758,-0.088,-0.0906,-0.0924,-0.0967,-0.1005,-0.1044,-0.1049,-0.1011,-0.0954,-0.0764,-0.0645,-0.0306,0.0045,0.0492,0.0647,0.1015,0.0959,0.1137,0.1181,0.1193,0.1308,0.0838,0.096,0.0959,0.0958,0.0958,0.0957,0,-0.089,-0.0919,-0.0969,-0.1016,-0.1067,-0.1074,-0.109,-0.1038,-0.0928,-0.0654,-0.0423,0.0148,0.0535,0.0876,0.1302,0.1503,0.1548,0.1608,0.1677,0.1737,0.1309,0.1325,0.1566,0.1566,0.1565,0.1565,0.1565,0.1565,-0.0894,-0.0931,-0.0962,-0.1044,-0.1085,-0.1103,-0.11,-0.0977,-0.0774,-0.03,0.0147,0.046,0.0901,0.1507,0.192,0.196,0.2155,0.2127,0.2223,0.194,0.19,0.1862,0.1894,0.225,0.225,0.2664,0.2668,0.2671]}],[{"header":{"parameterUnit":"m.s-1","parameterCategory":2,"la1":30.2991,"la2":30.254,"lo1":-89.0895,"lo2":-89.0444,"dy":0.0017,"dx":0.0017,"nx":28,"ny":28,"refTime":"2025-09-15T09:00:00:Z","depth":"2","parameterNumber":2,"parameterNumberName":"U-component_of_CURRENTS"},"data":[0,0,0,0,0,0,0,0,0,0,0,0,0,0,0,0,0,0,0,0,0,0,0,0,0,0,0,0,0,0,0,0,0,0,0,0,0,0,0,0,0,0,0,0,0,0,0,0,0,0,0,0,0,0,0,0,0,0,-0.2268,-0.2269,0,-0.237,-0.2371,-0.2372,-0.2377,-0.2376,-0.2375,-0.2374,-0.2506,-0.2511,-0.2515,0,0,0,0,0,0,0,0,0,0,0,0,0,-0.2153,-0.2155,-0.2268,-0.2269,-0.2271,-0.237,-0.2371,-0.2372,-0.2377,-0.2376,-0.2375,-0.2374,-0.2505,-0.251,-0.2515,0,0,0,0,0,0,0,0,0,0,0,0,0,-0.2221,-0.2155,-0.2268,-0.2288,-0.2291,-0.237,-0.2371,-0.2373,-0.2377,-0.2376,-0.2374,-0.2373,-0.2503,-0.251,-0.2516,-0.2584,0,0,-0.2536,-0.2539,0,0,0,0,0,0,0,0,-0.2217,-0.2225,-0.2283,-0.2286,-0.229,-0.2362,-0.238,-0.2446,-0.2378,-0.2341,-0.2374,-0.2373,-0.2464,-0.2474,-0.2491,-0.259,-0.2596,-0.2537,-0.2541,-0.2543,-0.2545,0,0,0,0,0,0,0,-0.2212,-0.2221,-0.2305,-0.2285,-0.2289,-0.2318,-0.2325,-0.2392,-0.2407,-0.2344,-0.2346,-0.2362,-0.2465,-0.2485,-0.2494,-0.2598,-0.2536,-0.2542,-0.2546,-0.2549,-0.2769,-0.2771,0,0,0,0,0,0,-0.2204,-0.2216,-0.2302,-0.2309,-0.2253,-0.2321,-0.2329,-0.2338,-0.2406,-0.2416,-0.2363,-0.2362,-0.2474,-0.2487,-0.2499,-0.2586,-0.2543,-0.255,-0.2553,-0.2767,-0.277,-0.2772,0,0,0,0,0,0,-0.2201,-0.221,-0.2298,-0.2268,-0.2281,-0.2324,-0.2335,-0.2341,-0.2374,-0.2421,-0.243,-0.2391,-0.2474,-0.249,-0.2564,-0.2591,-0.2553,-0.2558,-0.2765,-0.2768,-0.2771,-0.276,0,0,0,0,0,0,-0.2197,-0.2208,-0.222,-0.2267,-0.2283,-0.2347,-0.2336,-0.2344,-0.2387,-0.2386,-0.2449,-0.2458,-0.2474,-0.2554,-0.257,-0.26,-0.2564,-0.2763,-0.2766,-0.277,-0.2758,-0.2762,-0.2765,0,0,0,0,0,-0.2192,-0.2207,-0.2219,-0.223,-0.2294,-0.2349,-0.236,-0.2384,-0.2389,-0.2407,-0.2448,-0.2457,-0.2588,-0.2561,-0.258,-0.2611,-0.2761,-0.2765,-0.2769,-0.2756,-0.2761,-0.2765,0,0,0,0,0,0,-0.2168,-0.2211,-0.2225,-0.2253,-0.2301,-0.235,-0.2374,-0.24,-0.2448,-0.245,-0.2488,-0.2502,-0.2574,-0.2606,-0.2575,-0.2687,-0.2675,-0.2683,-0.2658,-0.2664,-0.2667,-0.2579,-0.2569,0,0,0,0,0,-0.217,-0.2183,-0.224,-0.2263,-0.2288,-0.2339,-0.2368,-0.239,-0.2437,-0.2457,-0.2505,-0.2558,-0.2609,-0.2643,-0.2693,-0.2767,-0.2729,-0.28,-0.2804,-0.2807,-0.275,-0.272,-0.2714,-0.2786,-0.2786,-0.2786,0,0,-0.2163,-0.2193,-0.2199,-0.2258,-0.2295,-0.2333,-0.2352,-0.24,-0.2422,-0.2468,-0.2523,-0.2579,-0.2632,-0.2697,-0.2734,-0.2726,-0.2776,-0.2812,-0.2814,-0.2754,-0.2723,-0.2715,-0.2708,-0.2789,-0.2788,-0.2788,0,0,-0.2168,-0.219,-0.221,-0.2245,-0.2309,-0.234,-0.236,-0.2429,-0.2446,-0.2526,-0.2546,-0.2585,-0.2719,-0.2709,-0.2734,-0.2792,-0.2797,-0.2865,-0.2815,-0.2789,-0.278,-0.2772,-0.2738,-0.2727,-0.2867,-0.2867,-0.2867,0,-0.2159,-0.2188,-0.2228,-0.2262,-0.2285,-0.2344,-0.2374,-0.2407,-0.249,-0.2511,-0.2542,-0.2662,-0.2693,-0.272,-0.2731,-0.2788,-0.2795,-0.2791,-0.2786,-0.2778,-0.2769,-0.2736,-0.2723,-0.2867,-0.2867,-0.2867,-0.2867,0,-0.2178,-0.2205,-0.222,-0.2269,-0.2308,-0.2338,-0.2391,-0.2438,-0.249,-0.2526,-0.2589,-0.2626,-0.2679,-0.2721,-0.2743,-0.2728,-0.276,-0.2791,-0.2757,-0.276,-0.2727,-0.2714,-0.2867,-0.2867,-0.2867,-0.2867,0,0,-0.213,-0.2213,-0.2214,-0.2243,-0.2306,-0.2343,-0.2382,-0.2434,-0.2459,-0.2534,-0.2555,-0.2608,-0.2628,-0.265,-0.2687,-0.2656,-0.2602,-0.2706,-0.2705,-0.2638,-0.2562,-0.2489,-0.2468,-0.2667,-0.2664,-0.2662,-0.2569,0,-0.2125,-0.2182,-0.2219,-0.2264,-0.2299,-0.2349,-0.2379,-0.2434,-0.2488,-0.2529,-0.2542,-0.2584,-0.2605,-0.2637,-0.2605,-0.2621,-0.2567,-0.2623,-0.2595,-0.2592,-0.2498,-0.2448,-0.2291,-0.2187,-0.2557,-0.2554,-0.2553,0,-0.2115,-0.216,-0.2203,-0.2269,-0.2286,-0.2315,-0.2372,-0.2407,-0.2459,-0.2501,-0.2527,-0.2563,-0.2527,-0.2546,-0.2492,-0.2555,-0.2526,-0.2517,-0.2516,-0.2419,-0.2491,-0.2243,-0.2149,-0.2531,-0.2533,-0.2534,-0.2536,0,-0.2063,-0.2136,-0.2167,-0.2186,-0.2276,-0.2297,-0.2337,-0.24,-0.2422,-0.2465,-0.2494,-0.2493,-0.2486,-0.2459,-0.2441,-0.2484,-0.2378,-0.2436,-0.2321,-0.2317,-0.2148,-0.2133,-0.2329,-0.2329,-0.2329,-0.233,-0.233,0,-0.202,-0.2044,-0.2147,-0.2164,-0.2192,-0.2268,-0.2292,-0.2339,-0.2389,-0.24,-0.2457,-0.245,-0.2467,-0.2437,-0.2417,-0.2319,-0.2351,-0.2253,-0.2265,-0.2148,-0.2134,-0.2409,-0.2419,-0.2326,-0.2327,-0.2328,-0.2328,0,-0.1945,-0.2007,-0.2055,-0.215,-0.2169,-0.2189,-0.2251,-0.2269,-0.2334,-0.2345,-0.2353,-0.2402,-0.2355,-0.2351,-0.2294,-0.2264,-0.2195,-0.2144,-0.1999,-0.1992,-0.2158,-0.217,-0.1992,-0.1988,-0.1985,-0.1982,-0.198,0,-0.1905,-0.1934,-0.2029,-0.2034,-0.2065,-0.2107,-0.2124,-0.2216,-0.2236,-0.2302,-0.2291,-0.2276,-0.2222,-0.2125,-0.2055,-0.1962,-0.2065,-0.1785,-0.1788,-0.2081,-0.2112,-0.213,-0.2146,-0.1581,-0.1576,-0.1571,-0.1568,0,-0.1834,-0.1877,-0.1906,-0.1933,-0.1951,-0.1978,-0.2017,-0.2031,-0.2126,-0.2141,-0.2131,-0.2093,-0.1998,-0.183,-0.1735,-0.1676,-0.1795,-0.169,-0.2005,-0.1701,-0.1688,-0.1722,-0.1751,-0.1528,-0.1532,-0.1535,-0.1537,-0.1539,-0.1761,-0.1754,-0.1795,-0.1797,-0.1819,-0.1822,-0.1792,-0.1849,-0.1856,-0.185,-0.1916,-0.1806,-0.1767,-0.1516,-0.1422,-0.1362,-0.1487,-0.1448,-0.1464,-0.1484,-0.1462,-0.1445,-0.1235,-0.1237,-0.1239,-0.1241,-0.1242,0,-0.1648,-0.1646,-0.1651,-0.1645,-0.1613,-0.1675,-0.1687,-0.1632,-0.1583,-0.1619,-0.158,-0.1387,-0.1256,-0.1225,-0.1052,-0.1018,-0.1028,-0.0992,-0.1016,-0.1055,-0.1089,-0.105,-0.0712,-0.0711,-0.071,-0.0708,0,0,-0.1572,-0.1531,-0.1532,-0.1432,-0.1425,-0.1333,-0.1306,-0.1255,-0.1239,-0.1172,-0.1131,-0.1204,-0.1189,-0.0964,-0.0898,-0.0776,-0.0912,-0.0733,-0.1155,-0.1222,-0.1255,-0.1343,-0.1324,0,0,0,0,0]},{"header":{"parameterUnit":"m.s-1","parameterCategory":2,"la1":30.2991,"la2":30.254,"lo1":-89.0895,"lo2":-89.0444,"dy":0.0017,"dx":0.0017,"nx":28,"ny":28,"refTime":"2025-09-15T09:00:00:Z","depth":"2","parameterNumber":3,"parameterNumberName":"V-component_of_CURRENTS"},"data":[0,0,0,0,0,0,0,0,0,0,0,0,0,0,0,0,0,0,0,0,0,0,0,0,0,0,0,0,0,0,0,0,0,0,0,0,0,0,0,0,0,0,0,0,0,0,0,0,0,0,0,0,0,0,0,0,0,0,-0.0293,-0.0292,0,-0.0219,-0.0218,-0.0217,-0.0161,-0.016,-0.016,-0.016,0.0029,0.0033,0.0038,0,0,0,0,0,0,0,0,0,0,0,0,0,-0.0318,-0.0318,-0.0293,-0.0292,-0.0292,-0.0219,-0.0218,-0.0217,-0.0161,-0.016,-0.016,-0.0159,0.0027,0.0033,0.0038,0,0,0,0,0,0,0,0,0,0,0,0,0,-0.0281,-0.0319,-0.0293,-0.0256,-0.0252,-0.022,-0.0218,-0.0217,-0.0161,-0.016,-0.016,-0.0159,0.0026,0.0032,0.0039,0.007,0,0,0.0061,0.0064,0,0,0,0,0,0,0,0,-0.0283,-0.028,-0.0262,-0.0258,-0.0254,-0.02,-0.0158,-0.0116,-0.0161,-0.0194,-0.016,-0.0159,-0.0038,-0.0026,-0.0013,0.0079,0.0087,0.0061,0.0065,0.0068,0.007,0,0,0,0,0,0,0,-0.0286,-0.0283,-0.0263,-0.0261,-0.0256,-0.022,-0.0214,-0.015,-0.0117,-0.0191,-0.0187,-0.0181,-0.0035,-0.002,-0.0008,0.009,0.0061,0.0067,0.0071,0.0074,0.0237,0.0237,0,0,0,0,0,0,-0.0302,-0.0286,-0.0265,-0.026,-0.0269,-0.022,-0.0214,-0.0217,-0.012,-0.0106,-0.0182,-0.0179,-0.0032,-0.0016,-0.0001,0.0054,0.0068,0.0075,0.0079,0.0237,0.0237,0.0237,0,0,0,0,0,0,-0.0303,-0.0302,-0.0268,-0.0272,-0.0265,-0.0221,-0.0224,-0.0216,-0.0194,-0.0115,-0.0098,-0.0168,-0.0031,-0.0011,0.0048,0.0062,0.0078,0.0084,0.0236,0.0237,0.0237,0.0158,0,0,0,0,0,0,-0.0304,-0.0303,-0.0308,-0.0273,-0.0265,-0.026,-0.0224,-0.0215,-0.0192,-0.0187,-0.0097,-0.008,-0.0029,0.0037,0.0054,0.0072,0.009,0.0236,0.0237,0.0237,0.016,0.0155,0.0151,0,0,0,0,0,-0.0306,-0.0324,-0.0309,-0.0306,-0.0276,-0.0261,-0.0254,-0.0219,-0.0192,-0.0194,-0.0133,-0.0082,0.0052,0.0042,0.0063,0.0083,0.0236,0.0236,0.0237,0.0162,0.0156,0.0151,0,0,0,0,0,0,-0.0338,-0.0319,-0.0302,-0.0313,-0.0292,-0.0252,-0.025,-0.0219,-0.0174,-0.0164,-0.0083,-0.0062,-0.0007,0.0048,0.0035,0.013,0.0154,0.0159,0.009,0.0085,0.0081,0.0037,0.0095,0,0,0,0,0,-0.0349,-0.0356,-0.0329,-0.0335,-0.0329,-0.0286,-0.0273,-0.0251,-0.0208,-0.0187,-0.0123,-0.0052,0.001,0.0053,0.0107,0.0164,0.0203,0.0191,0.0187,0.0182,0.0161,0.0227,0.0226,0.0238,0.0238,0.0238,0,0,-0.0363,-0.0352,-0.0355,-0.0342,-0.032,-0.0319,-0.0277,-0.0267,-0.0256,-0.0171,-0.0132,-0.007,0.0017,0.0069,0.0101,0.012,0.02,0.0183,0.0178,0.0159,0.0227,0.0226,0.0225,0.0238,0.0238,0.0238,0,0,-0.0399,-0.0385,-0.0404,-0.0392,-0.0371,-0.0345,-0.0344,-0.0305,-0.028,-0.0241,-0.0175,-0.0123,-0.0016,0.0034,0.0079,0.0083,0.0165,0.0127,0.0082,0.0147,0.0146,0.0146,0.0192,0.0196,0.0136,0.0135,0.0135,0,-0.0415,-0.043,-0.0406,-0.0419,-0.0408,-0.036,-0.037,-0.0342,-0.0287,-0.0255,-0.0241,-0.01,-0.0044,0.0036,0.0025,0.007,0.0124,0.0095,0.0139,0.014,0.0141,0.0188,0.0194,0.0132,0.0132,0.0132,0.0133,0,-0.0466,-0.047,-0.048,-0.0476,-0.0465,-0.0466,-0.0428,-0.0403,-0.036,-0.0318,-0.0244,-0.0176,-0.0089,-0.0057,-0.0018,0.0035,0.0076,0.0116,0.0147,0.0134,0.0186,0.0193,0.0126,0.0128,0.0129,0.013,0,0,-0.0516,-0.0516,-0.0517,-0.0516,-0.0492,-0.0487,-0.0468,-0.0425,-0.0398,-0.0341,-0.0294,-0.0218,-0.0169,-0.0119,-0.0048,-0.0005,0.003,0.0052,0.0058,0.0084,0.0177,0.021,0.0222,0.0098,0.0099,0.01,0.0209,0,-0.0557,-0.059,-0.0575,-0.0587,-0.0592,-0.0542,-0.0525,-0.0479,-0.0426,-0.0372,-0.0289,-0.0228,-0.0189,-0.0148,-0.0098,0.0002,0.0048,-0.0004,0.0195,0.02,0.0221,0.023,0.0219,0.0317,0.0216,0.0218,0.0219,0,-0.0611,-0.0618,-0.0646,-0.0624,-0.0622,-0.0622,-0.057,-0.055,-0.0463,-0.0421,-0.0342,-0.0268,-0.0194,-0.0168,-0.0017,-0.0038,0.0047,0.0116,0.0124,0.0182,0.0247,0.0316,0.0335,0.0232,0.0231,0.023,0.0229,0,-0.0653,-0.0663,-0.0681,-0.0679,-0.0655,-0.0647,-0.0626,-0.056,-0.0537,-0.0451,-0.042,-0.03,-0.0244,-0.0123,0.0009,0.001,0.0176,0.0205,0.0315,0.0319,0.0357,0.0362,0.0299,0.0299,0.0298,0.0298,0.0298,0,-0.0697,-0.0707,-0.0703,-0.0712,-0.0724,-0.0689,-0.0685,-0.0643,-0.0584,-0.055,-0.0451,-0.0392,-0.023,-0.0106,0.0011,0.0187,0.0189,0.0297,0.0351,0.033,0.0331,0.0295,0.0293,0.0302,0.0301,0.03,0.03,0,-0.0737,-0.0736,-0.0759,-0.0749,-0.0749,-0.0757,-0.0741,-0.0733,-0.0671,-0.0625,-0.06,-0.0453,-0.0286,-0.012,0.0083,0.0188,0.0348,0.041,0.0362,0.0407,0.0443,0.0436,0.0539,0.0541,0.0543,0.0545,0.0546,0,-0.076,-0.0779,-0.08,-0.082,-0.082,-0.0828,-0.0834,-0.0785,-0.0772,-0.0651,-0.0629,-0.0459,-0.0313,-0.0011,0.0198,0.0422,0.0412,0.0532,0.0515,0.0427,0.0469,0.0459,0.045,0.0537,0.0538,0.0539,0.054,0,-0.0795,-0.081,-0.0828,-0.0878,-0.09,-0.0922,-0.0921,-0.0923,-0.0847,-0.0769,-0.0629,-0.0496,-0.0205,0.0058,0.0331,0.0456,0.0492,0.0557,0.0507,0.0471,0.0433,0.0471,0.0461,0.0548,0.0547,0.0547,0.0546,0.0546,-0.082,-0.085,-0.0885,-0.0927,-0.0963,-0.0996,-0.1,-0.0969,-0.0911,-0.0767,-0.0634,-0.0405,-0.0165,0.0237,0.043,0.0592,0.0589,0.0635,0.0629,0.0623,0.0597,0.0563,0.0697,0.0697,0.0697,0.0697,0.0697,0,-0.0841,-0.0877,-0.0929,-0.0979,-0.1026,-0.103,-0.1039,-0.1001,-0.091,-0.0751,-0.0564,-0.0267,0.0024,0.0245,0.052,0.069,0.0664,0.0705,0.0643,0.0636,0.0629,0.0599,0.0702,0.0703,0.0703,0.0703,0,0,-0.0851,-0.0902,-0.0931,-0.101,-0.1049,-0.1071,-0.1067,-0.0979,-0.0862,-0.0662,-0.0486,-0.0249,0.003,0.0227,0.0444,0.0577,0.0555,0.0583,0.0567,0.0463,0.0454,0.0585,0.0531,0,0,0,0,0]}],[{"header":{"parameterUnit":"m.s-1","parameterCategory":2,"la1":30.2991,"la2":30.254,"lo1":-89.0895,"lo2":-89.0444,"dy":0.0017,"dx":0.0017,"nx":28,"ny":28,"refTime":"2025-09-15T09:00:00:Z","depth":"4","parameterNumber":2,"parameterNumberName":"U-component_of_CURRENTS"},"data":[0,0,0,0,0,0,0,0,0,0,0,0,0,0,0,0,0,0,0,0,0,0,0,0,0,0,0,0,0,0,0,0,0,0,0,0,0,0,0,0,0,0,0,0,0,0,0,0,0,0,0,0,0,0,0,0,0,0,-0.142,-0.1421,0,-0.1499,-0.15,-0.1501,-0.153,-0.153,-0.153,-0.1529,-0.1625,-0.1628,-0.1631,0,0,0,0,0,0,0,0,0,0,0,0,0,-0.1319,-0.1321,-0.142,-0.1421,-0.1422,-0.1499,-0.15,-0.1501,-0.153,-0.153,-0.1529,-0.1529,-0.1624,-0.1628,-0.1631,0,0,0,0,0,0,0,0,0,0,0,0,0,-0.1376,-0.1321,-0.142,-0.1446,-0.1449,-0.1499,-0.15,-0.1501,-0.153,-0.153,-0.1529,-0.1529,-0.1623,-0.1627,-0.1631,-0.1664,0,0,-0.1644,-0.1646,0,0,0,0,0,0,0,0,-0.1373,-0.138,-0.1441,-0.1444,-0.1448,-0.1505,-0.15,-0.1557,-0.153,-0.1499,-0.1529,-0.1529,-0.1587,-0.1594,-0.1609,-0.1668,-0.1672,-0.1644,-0.1647,-0.1649,-0.165,0,0,0,0,0,0,0,-0.1369,-0.1377,-0.1451,-0.1442,-0.1446,-0.1463,-0.147,-0.1511,-0.1544,-0.1502,-0.1504,-0.1514,-0.1589,-0.1605,-0.1611,-0.1674,-0.1644,-0.1648,-0.165,-0.1652,-0.1818,-0.1819,0,0,0,0,0,0,-0.136,-0.1373,-0.1448,-0.1453,-0.141,-0.1465,-0.1473,-0.1486,-0.1543,-0.1551,-0.1514,-0.1515,-0.1598,-0.1607,-0.1615,-0.1695,-0.1649,-0.1653,-0.1655,-0.1816,-0.1818,-0.182,0,0,0,0,0,0,-0.1357,-0.1366,-0.1445,-0.1415,-0.1426,-0.1467,-0.1482,-0.1488,-0.1525,-0.1552,-0.1561,-0.1546,-0.1598,-0.1609,-0.1674,-0.1697,-0.1654,-0.1658,-0.1813,-0.1816,-0.1819,-0.183,0,0,0,0,0,0,-0.1354,-0.1364,-0.138,-0.1415,-0.1428,-0.1491,-0.1482,-0.149,-0.1531,-0.1533,-0.1583,-0.159,-0.1599,-0.1668,-0.1678,-0.1702,-0.1661,-0.1811,-0.1815,-0.1818,-0.1828,-0.1833,-0.1838,0,0,0,0,0,-0.135,-0.1369,-0.1381,-0.139,-0.1445,-0.1492,-0.1501,-0.1527,-0.1533,-0.1558,-0.1593,-0.159,-0.1698,-0.1674,-0.1685,-0.171,-0.1809,-0.1814,-0.1818,-0.1825,-0.1832,-0.1838,0,0,0,0,0,0,-0.1333,-0.1375,-0.1388,-0.1419,-0.1461,-0.1497,-0.1523,-0.1543,-0.1591,-0.16,-0.1619,-0.163,-0.1691,-0.171,-0.1682,-0.1771,-0.1752,-0.1758,-0.1753,-0.176,-0.1765,-0.177,-0.1665,0,0,0,0,0,-0.1337,-0.1365,-0.1406,-0.1435,-0.1456,-0.1496,-0.1521,-0.1545,-0.1586,-0.1607,-0.1642,-0.1682,-0.1716,-0.1745,-0.178,-0.1838,-0.1831,-0.1862,-0.1867,-0.1871,-0.1886,-0.1899,-0.1906,-0.1834,-0.1834,-0.1834,0,0,-0.134,-0.1366,-0.1384,-0.1435,-0.1467,-0.1507,-0.1511,-0.1561,-0.1598,-0.1611,-0.1679,-0.1705,-0.1737,-0.1791,-0.1821,-0.1812,-0.1884,-0.1877,-0.188,-0.1892,-0.1904,-0.1911,-0.1917,-0.1837,-0.1837,-0.1836,0,0,-0.1355,-0.1384,-0.1412,-0.1449,-0.1504,-0.1532,-0.1552,-0.1608,-0.1637,-0.1704,-0.1715,-0.1761,-0.1827,-0.1848,-0.1865,-0.1928,-0.1909,-0.1942,-0.1976,-0.1989,-0.1994,-0.1999,-0.197,-0.1972,-0.1947,-0.1947,-0.1947,0,-0.1356,-0.1397,-0.1429,-0.1466,-0.1504,-0.1545,-0.1591,-0.1625,-0.1698,-0.1733,-0.1731,-0.1831,-0.1851,-0.1909,-0.1926,-0.1938,-0.1931,-0.1942,-0.1993,-0.1997,-0.2002,-0.1972,-0.1974,-0.1948,-0.1948,-0.1948,-0.1948,0,-0.1389,-0.143,-0.1452,-0.1512,-0.1558,-0.1607,-0.1658,-0.1712,-0.1751,-0.1785,-0.1862,-0.1891,-0.1949,-0.1958,-0.196,-0.2012,-0.1988,-0.199,-0.1967,-0.2009,-0.1975,-0.1977,-0.1949,-0.1949,-0.1949,-0.1948,0,0,-0.136,-0.1457,-0.1466,-0.1512,-0.1591,-0.1636,-0.1702,-0.1778,-0.1826,-0.1885,-0.1943,-0.1997,-0.2016,-0.2038,-0.2046,-0.2059,-0.2065,-0.2043,-0.2043,-0.1997,-0.2065,-0.1913,-0.19,-0.2073,-0.2075,-0.2076,-0.2016,0,-0.1377,-0.1462,-0.1505,-0.1592,-0.1642,-0.1707,-0.1764,-0.1839,-0.1893,-0.1956,-0.1991,-0.2044,-0.2042,-0.2067,-0.2084,-0.2078,-0.2077,-0.2079,-0.2048,-0.2046,-0.1892,-0.19,-0.208,-0.2017,-0.2018,-0.2018,-0.2018,0,-0.138,-0.1447,-0.1541,-0.1648,-0.1676,-0.1735,-0.1849,-0.1904,-0.1988,-0.2027,-0.2088,-0.2108,-0.2149,-0.2129,-0.2141,-0.2143,-0.2113,-0.2093,-0.209,-0.195,-0.1898,-0.1977,-0.2022,-0.2021,-0.2021,-0.2021,-0.2021,0,-0.1348,-0.1461,-0.1546,-0.1586,-0.1713,-0.1774,-0.1839,-0.1936,-0.198,-0.207,-0.21,-0.2161,-0.2173,-0.2176,-0.2138,-0.2147,-0.2119,-0.2121,-0.1951,-0.1938,-0.2087,-0.2083,-0.212,-0.212,-0.212,-0.212,-0.212,0,-0.133,-0.1399,-0.1547,-0.1595,-0.1689,-0.178,-0.1868,-0.1938,-0.2021,-0.2055,-0.213,-0.2142,-0.2187,-0.2173,-0.2148,-0.2038,-0.2125,-0.1951,-0.1917,-0.209,-0.2088,-0.2086,-0.2083,-0.2118,-0.2119,-0.2119,-0.2119,0,-0.1273,-0.1369,-0.1473,-0.163,-0.1675,-0.1745,-0.1863,-0.1907,-0.2002,-0.2043,-0.2066,-0.2127,-0.2093,-0.21,-0.2077,-0.2014,-0.195,-0.1888,-0.2045,-0.2022,-0.1757,-0.1756,-0.1694,-0.1688,-0.1683,-0.1679,-0.1676,0,-0.1252,-0.1307,-0.1483,-0.1528,-0.1601,-0.1707,-0.1756,-0.1878,-0.1911,-0.2004,-0.1998,-0.2009,-0.2023,-0.1855,-0.1894,-0.1817,-0.1797,-0.1758,-0.1786,-0.1741,-0.1716,-0.1723,-0.1728,-0.1668,-0.1667,-0.1665,-0.1664,0,-0.1212,-0.1289,-0.137,-0.1462,-0.1534,-0.1604,-0.1687,-0.1698,-0.181,-0.1913,-0.1862,-0.1829,-0.1775,-0.1738,-0.1678,-0.1637,-0.179,-0.1707,-0.1717,-0.1743,-0.1709,-0.169,-0.1701,-0.1647,-0.165,-0.1651,-0.1652,0,-0.1173,-0.1209,-0.1306,-0.1367,-0.1445,-0.1464,-0.1535,-0.1556,-0.1601,-0.1709,-0.1682,-0.1692,-0.1745,-0.1641,-0.1598,-0.1531,-0.1512,-0.1479,-0.1502,-0.1521,-0.1493,-0.1426,-0.124,0,0,0,0,0,-0.1123,-0.1137,-0.1191,-0.125,-0.1315,-0.1352,-0.1459,-0.1527,-0.1639,-0.1551,-0.1612,-0.1552,-0.1472,-0.1488,-0.1377,-0.1519,-0.1524,-0.1387,-0.15,-0.1553,-0.1573,-0.1556,0,0,0,0,0,0,-0.108,-0.1136,-0.1152,-0.1124,-0.1126,-0.1182,-0.124,-0.1325,-0.1292,-0.1405,-0.1361,-0.1447,-0.1385,-0.1484,-0.1334,-0.1338,-0.1377,-0.1408,-0.1404,-0.1542,-0.156,-0.1576,-0.1565,0,0,0,0,0]},{"header":{"parameterUnit":"m.s-1","parameterCategory":2,"la1":30.2991,"la2":30.254,"lo1":-89.0895,"lo2":-89.0444,"dy":0.0017,"dx":0.0017,"nx":28,"ny":28,"refTime":"2025-09-15T09:00:00:Z","depth":"4","parameterNumber":3,"parameterNumberName":"V-component_of_CURRENTS"},"data":[0,0,0,0,0,0,0,0,0,0,0,0,0,0,0,0,0,0,0,0,0,0,0,0,0,0,0,0,0,0,0,0,0,0,0,0,0,0,0,0,0,0,0,0,0,0,0,0,0,0,0,0,0,0,0,0,0,0,-0.0279,-0.0279,0,-0.0257,-0.0257,-0.0257,-0.0228,-0.0228,-0.0228,-0.0227,-0.015,-0.0148,-0.0146,0,0,0,0,0,0,0,0,0,0,0,0,0,-0.0266,-0.0266,-0.0279,-0.0279,-0.0279,-0.0257,-0.0257,-0.0257,-0.0228,-0.0228,-0.0227,-0.0227,-0.015,-0.0148,-0.0146,0,0,0,0,0,0,0,0,0,0,0,0,0,-0.026,-0.0267,-0.0279,-0.0263,-0.0261,-0.0257,-0.0257,-0.0256,-0.0228,-0.0228,-0.0227,-0.0227,-0.0151,-0.0148,-0.0146,-0.0141,0,0,-0.0138,-0.0137,0,0,0,0,0,0,0,0,-0.026,-0.026,-0.0265,-0.0264,-0.0262,-0.0246,-0.0224,-0.0216,-0.0229,-0.024,-0.0227,-0.0227,-0.0178,-0.0173,-0.0169,-0.0138,-0.0134,-0.0138,-0.0136,-0.0135,-0.0134,0,0,0,0,0,0,0,-0.0261,-0.0261,-0.027,-0.0265,-0.0263,-0.0246,-0.0245,-0.0222,-0.021,-0.0239,-0.0237,-0.0236,-0.0176,-0.0172,-0.0167,-0.0133,-0.0138,-0.0136,-0.0134,-0.0133,-0.0094,-0.0094,0,0,0,0,0,0,-0.0268,-0.0262,-0.027,-0.0269,-0.0261,-0.0247,-0.0246,-0.0251,-0.0212,-0.0206,-0.0237,-0.0235,-0.0177,-0.017,-0.0164,-0.0158,-0.0135,-0.0133,-0.0131,-0.0093,-0.0094,-0.0094,0,0,0,0,0,0,-0.0268,-0.0269,-0.0271,-0.0265,-0.0264,-0.0248,-0.0254,-0.0251,-0.0248,-0.0211,-0.0204,-0.0237,-0.0176,-0.0168,-0.0148,-0.0154,-0.0132,-0.0129,-0.0093,-0.0093,-0.0094,-0.0143,0,0,0,0,0,0,-0.0267,-0.0269,-0.0276,-0.0266,-0.0265,-0.0276,-0.0255,-0.0251,-0.0248,-0.0246,-0.0209,-0.0201,-0.0175,-0.0153,-0.0146,-0.015,-0.0127,-0.0092,-0.0093,-0.0094,-0.0141,-0.0145,-0.0149,0,0,0,0,0,-0.0267,-0.0283,-0.0277,-0.0278,-0.0275,-0.0277,-0.0275,-0.026,-0.0249,-0.0254,-0.0227,-0.0203,-0.0154,-0.0151,-0.0143,-0.0147,-0.0092,-0.0093,-0.0094,-0.0139,-0.0144,-0.0149,0,0,0,0,0,0,-0.0282,-0.0282,-0.0275,-0.029,-0.0286,-0.0273,-0.0277,-0.0266,-0.025,-0.0245,-0.0207,-0.0198,-0.0186,-0.0161,-0.0159,-0.0139,-0.0119,-0.0119,-0.0156,-0.0161,-0.0165,-0.0154,-0.0125,0,0,0,0,0,-0.029,-0.03,-0.0294,-0.0306,-0.0306,-0.0292,-0.029,-0.0281,-0.0266,-0.0259,-0.0235,-0.0207,-0.0185,-0.0169,-0.0149,-0.0135,-0.0086,-0.0133,-0.0138,-0.0141,-0.0127,-0.0052,-0.0047,-0.0098,-0.0098,-0.0098,0,0,-0.0299,-0.0299,-0.0306,-0.031,-0.0304,-0.0312,-0.029,-0.0293,-0.0294,-0.0252,-0.0247,-0.0224,-0.0187,-0.0174,-0.0166,-0.0152,-0.0107,-0.0143,-0.0146,-0.013,-0.0052,-0.0047,-0.0042,-0.0099,-0.0099,-0.0099,0,0,-0.0326,-0.0324,-0.0342,-0.0342,-0.034,-0.0331,-0.0334,-0.0326,-0.0316,-0.0311,-0.0279,-0.0255,-0.0231,-0.0198,-0.0179,-0.0193,-0.0136,-0.0195,-0.0199,-0.0126,-0.0121,-0.0115,-0.0069,-0.0059,-0.0191,-0.0191,-0.0191,0,-0.0336,-0.0356,-0.0348,-0.0363,-0.0362,-0.0342,-0.0356,-0.0347,-0.0333,-0.0313,-0.0317,-0.0258,-0.0239,-0.0194,-0.0207,-0.0201,-0.0155,-0.0184,-0.013,-0.0123,-0.0116,-0.007,-0.0058,-0.0194,-0.0193,-0.0193,-0.0193,0,-0.0376,-0.0388,-0.0399,-0.0408,-0.0408,-0.0417,-0.0402,-0.0396,-0.0383,-0.0361,-0.0324,-0.0293,-0.0248,-0.0249,-0.0236,-0.0182,-0.0166,-0.0148,-0.0114,-0.0114,-0.0066,-0.0053,-0.0197,-0.0196,-0.0196,-0.0195,0,0,-0.0403,-0.0423,-0.0426,-0.0432,-0.043,-0.0433,-0.043,-0.041,-0.0393,-0.0371,-0.0335,-0.0307,-0.0272,-0.0248,-0.022,-0.0166,-0.0106,-0.0143,-0.0138,-0.0093,0.0045,0.0021,0.0033,-0.007,-0.0068,-0.0066,0.0052,0,-0.0433,-0.047,-0.0468,-0.0491,-0.0502,-0.0478,-0.0473,-0.0447,-0.042,-0.0383,-0.0323,-0.029,-0.0275,-0.0257,-0.0197,-0.0131,-0.0069,-0.014,0.0036,0.004,0.0024,0.0049,-0.0058,0.0062,0.0065,0.0067,0.0069,0,-0.047,-0.0486,-0.052,-0.0519,-0.052,-0.0531,-0.0502,-0.0495,-0.043,-0.0404,-0.0339,-0.0291,-0.0216,-0.0207,-0.006,-0.0104,-0.0029,0.0026,0.0032,0.0043,0.0042,0.0068,0.0094,0.0092,0.009,0.0089,0.0087,0,-0.0491,-0.0517,-0.0544,-0.0548,-0.0548,-0.055,-0.0544,-0.0499,-0.0485,-0.0411,-0.0387,-0.0276,-0.0231,-0.0112,-0.0014,-0.0026,0.0153,0.0153,0.0211,0.0209,0.0217,0.0211,0.0283,0.0283,0.0283,0.0282,0.0282,0,-0.0515,-0.0535,-0.0559,-0.0573,-0.0594,-0.0578,-0.0581,-0.0556,-0.0508,-0.0478,-0.0399,-0.0344,-0.0202,-0.0091,0.0008,0.0145,0.0179,0.0224,0.0249,0.0188,0.0177,0.0226,0.0217,0.0287,0.0286,0.0285,0.0284,0,-0.0533,-0.0551,-0.0585,-0.0601,-0.061,-0.0625,-0.0629,-0.0622,-0.0575,-0.0532,-0.051,-0.0383,-0.0239,-0.0099,0.0092,0.0159,0.0295,0.0342,0.0255,0.027,0.0297,0.0285,0.0421,0.0421,0.0421,0.0422,0.0422,0,-0.0545,-0.0568,-0.0618,-0.0647,-0.0661,-0.0683,-0.0696,-0.0664,-0.0651,-0.055,-0.0524,-0.038,-0.0283,-0.0026,0.011,0.0312,0.0334,0.0395,0.0358,0.0307,0.0317,0.0304,0.0292,0.0422,0.0422,0.0422,0.0423,0,-0.0562,-0.0591,-0.062,-0.0685,-0.072,-0.0748,-0.0758,-0.0751,-0.0692,-0.0652,-0.0508,-0.0364,-0.0199,-0.0014,0.0139,0.028,0.0346,0.0399,0.0399,0.0365,0.031,0.0318,0.0305,0.0424,0.0423,0.0423,0.0423,0,-0.0577,-0.0609,-0.0662,-0.071,-0.0764,-0.0791,-0.0794,-0.0751,-0.0719,-0.0598,-0.0545,-0.0353,-0.0233,-0.0028,0.0116,0.0245,0.0272,0.0299,0.0305,0.0305,0.0224,0.0134,0.0231,0,0,0,0,0,-0.0584,-0.0623,-0.0679,-0.0735,-0.0791,-0.0814,-0.0823,-0.081,-0.0752,-0.0651,-0.0591,-0.0425,-0.0182,-0.0072,0.0057,0.009,0.0264,0.024,0.029,0.043,0.0428,0.0349,0,0,0,0,0,0,-0.059,-0.0649,-0.0678,-0.0744,-0.0785,-0.0833,-0.0839,-0.0801,-0.0732,-0.065,-0.0515,-0.0413,-0.0181,-0.0252,0.0056,0.0096,0.0139,0.0363,0.0365,0.043,0.0429,0.0428,0.0346,0,0,0,0,0]}]]